Time,TemperatureF,DewpointF,PressureIn,WindDirection,WindDirectionDegrees,WindSpeedMPH,WindSpeedGustMPH,Humidity,HourlyPrecipIn,Conditions,Clouds,dailyrainin,SolarRadiationWatts/m^2,SoftwareType,DateUTC
2013-05-03 00:01:00,67.5,65.1,29.97,NE,44,3.0,12.0,92,0.00,,,0.50,0.0,meteohub,2013-05-03 04:01:00,
2013-05-03 00:06:00,67.3,64.9,29.97,NNE,24,1.0,13.0,92,0.00,,,0.00,0.0,meteohub,2013-05-03 04:06:00,
2013-05-03 00:11:00,67.3,64.9,29.97,NNE,19,3.0,14.0,92,0.00,,,0.00,0.0,meteohub,2013-05-03 04:11:00,
2013-05-03 00:16:00,67.3,64.9,29.97,NE,44,5.0,14.0,92,0.00,,,0.00,0.0,meteohub,2013-05-03 04:16:00,
2013-05-03 00:21:00,67.3,64.9,29.97,NE,34,4.0,14.0,92,0.00,,,0.00,0.0,meteohub,2013-05-03 04:21:00,
2013-05-03 00:26:00,67.3,64.9,29.97,ENE,59,5.0,12.0,92,0.00,,,0.00,0.0,meteohub,2013-05-03 04:26:00,
2013-05-03 00:31:00,67.3,64.9,29.97,North,355,3.0,9.0,92,0.00,,,0.00,0.0,meteohub,2013-05-03 04:31:00,
2013-05-03 00:36:00,67.1,64.8,29.97,NNE,22,3.0,11.0,92,0.00,,,0.00,0.0,meteohub,2013-05-03 04:36:00,
2013-05-03 00:41:00,67.3,64.9,29.96,NE,34,3.0,12.0,92,0.00,,,0.00,0.0,meteohub,2013-05-03 04:41:00,
2013-05-03 00:46:00,67.3,64.6,29.96,North,0,2.0,12.0,91,0.00,,,0.00,0.0,meteohub,2013-05-03 04:46:00,
2013-05-03 00:51:00,67.5,64.8,29.96,NNE,30,11.0,14.0,91,0.00,,,0.00,0.0,meteohub,2013-05-03 04:51:00,
2013-05-03 00:57:00,67.6,64.9,29.96,NW,325,3.0,14.0,91,0.00,,,0.00,0.0,meteohub,2013-05-03 04:57:00,
2013-05-03 01:02:00,67.6,64.9,29.96,NNE,27,8.0,14.0,91,0.00,,,0.00,0.0,meteohub,2013-05-03 05:02:00,
2013-05-03 01:07:00,67.6,64.6,29.95,NNE,28,3.0,11.0,90,0.00,,,0.00,0.0,meteohub,2013-05-03 05:07:00,
2013-05-03 01:12:00,67.6,64.6,29.95,NNE,32,6.0,12.0,90,0.00,,,0.00,0.0,meteohub,2013-05-03 05:12:00,
2013-05-03 01:17:00,67.6,64.6,29.95,NE,38,5.0,12.0,90,0.00,,,0.00,0.0,meteohub,2013-05-03 05:17:00,
2013-05-03 01:22:00,67.6,64.6,29.94,NE,40,5.0,12.0,90,0.00,,,0.00,0.0,meteohub,2013-05-03 05:22:00,
2013-05-03 01:27:00,67.8,64.8,29.94,NE,46,4.0,14.0,90,0.00,,,0.00,0.0,meteohub,2013-05-03 05:27:00,
2013-05-03 01:32:00,67.8,64.4,29.94,NE,34,5.0,14.0,89,0.00,,,0.00,0.0,meteohub,2013-05-03 05:32:00,
2013-05-03 01:37:00,67.8,64.4,29.94,NNE,24,7.0,14.0,89,0.00,,,0.00,0.0,meteohub,2013-05-03 05:37:00,
2013-05-03 01:42:00,67.8,64.4,29.94,North,355,15.0,15.0,89,0.00,,,0.00,0.0,meteohub,2013-05-03 05:42:00,
2013-05-03 01:47:00,68.0,64.6,29.94,NE,36,8.0,15.0,89,0.00,,,0.00,0.0,meteohub,2013-05-03 05:47:00,
2013-05-03 01:52:00,68.0,64.6,29.93,NE,51,8.0,15.0,89,0.00,,,0.00,0.0,meteohub,2013-05-03 05:52:00,
2013-05-03 01:57:00,68.0,64.6,29.93,NE,36,6.0,15.0,89,0.00,,,0.00,0.0,meteohub,2013-05-03 05:57:00,
2013-05-03 02:02:00,67.8,64.4,29.92,ENE,65,7.0,13.0,89,0.00,,,0.00,0.0,meteohub,2013-05-03 06:02:00,
2013-05-03 02:07:00,67.8,64.4,29.92,NE,55,6.0,13.0,89,0.00,,,0.00,0.0,meteohub,2013-05-03 06:07:00,
2013-05-03 02:12:00,68.0,64.4,29.92,NE,40,4.0,14.0,88,0.00,,,0.00,0.0,meteohub,2013-05-03 06:12:00,
2013-05-03 02:16:00,68.0,64.4,29.92,NNE,18,4.0,14.0,88,0.00,,,0.00,0.0,meteohub,2013-05-03 06:16:00,
2013-05-03 02:22:00,68.0,64.6,29.92,NE,37,9.0,14.0,89,0.00,,,0.00,0.0,meteohub,2013-05-03 06:22:00,
2013-05-03 02:27:00,67.8,64.4,29.91,NNE,29,8.0,14.0,89,0.00,,,0.00,0.0,meteohub,2013-05-03 06:27:00,
2013-05-03 02:32:00,67.8,64.4,29.91,NE,49,5.0,13.0,89,0.00,,,0.00,0.0,meteohub,2013-05-03 06:32:00,
2013-05-03 02:37:00,68.0,64.6,29.91,NE,46,5.0,13.0,89,0.00,,,0.00,0.0,meteohub,2013-05-03 06:37:00,
2013-05-03 02:42:00,68.0,64.4,29.91,North,9,8.0,13.0,88,0.00,,,0.00,0.0,meteohub,2013-05-03 06:42:00,
2013-05-03 02:47:00,68.0,64.4,29.91,NNE,21,6.0,13.0,88,0.00,,,0.00,0.0,meteohub,2013-05-03 06:47:00,
2013-05-03 02:52:00,68.2,64.4,29.91,NE,49,7.0,13.0,88,0.00,,,0.00,0.0,meteohub,2013-05-03 06:52:00,
2013-05-03 02:57:00,68.2,64.4,29.91,NNE,12,6.0,13.0,88,0.00,,,0.00,0.0,meteohub,2013-05-03 06:57:00,
2013-05-03 03:02:00,68.2,64.4,29.91,NE,55,5.0,13.0,88,0.00,,,0.00,0.0,meteohub,2013-05-03 07:02:00,
2013-05-03 03:07:00,68.4,64.4,29.91,NE,55,8.0,15.0,87,0.00,,,0.00,0.0,meteohub,2013-05-03 07:07:00,
2013-05-03 03:12:00,68.4,64.4,29.91,NE,40,5.0,17.0,87,0.00,,,0.00,0.0,meteohub,2013-05-03 07:12:00,
2013-05-03 03:17:00,68.4,64.0,29.90,ENE,63,4.0,17.0,86,0.00,,,0.00,0.0,meteohub,2013-05-03 07:17:00,
2013-05-03 03:22:00,68.5,64.2,29.90,ENE,68,9.0,16.0,86,0.00,,,0.00,0.0,meteohub,2013-05-03 07:22:00,
2013-05-03 03:27:00,68.5,64.2,29.90,NNE,32,6.0,18.0,86,0.00,,,0.00,0.0,meteohub,2013-05-03 07:27:00,
2013-05-03 03:32:00,68.5,64.2,29.90,NE,39,8.0,18.0,86,0.00,,,0.00,0.0,meteohub,2013-05-03 07:32:00,
2013-05-03 03:37:00,68.5,64.2,29.89,NNE,27,7.0,18.0,86,0.00,,,0.00,0.0,meteohub,2013-05-03 07:37:00,
2013-05-03 03:42:00,68.4,63.7,29.89,NE,41,9.0,14.0,85,0.00,,,0.00,0.0,meteohub,2013-05-03 07:42:00,
2013-05-03 03:47:00,68.4,63.7,29.89,NNE,21,8.0,14.0,85,0.00,,,0.00,0.0,meteohub,2013-05-03 07:47:00,
2013-05-03 03:52:00,68.4,63.7,29.89,NE,39,2.0,14.0,85,0.00,,,0.00,0.0,meteohub,2013-05-03 07:52:00,
2013-05-03 03:57:00,68.4,63.7,29.89,North,11,13.0,14.0,85,0.00,,,0.00,0.0,meteohub,2013-05-03 07:57:00,
2013-05-03 04:02:00,68.5,63.9,29.89,NE,36,3.0,13.0,85,0.00,,,0.00,0.0,meteohub,2013-05-03 08:02:00,
2013-05-03 04:07:00,68.5,63.9,29.89,North,355,6.0,13.0,85,0.00,,,0.00,0.0,meteohub,2013-05-03 08:07:00,
2013-05-03 04:12:00,68.5,63.9,29.89,North,0,7.0,13.0,85,0.00,,,0.00,0.0,meteohub,2013-05-03 08:12:00,
2013-05-03 04:17:00,68.7,64.0,29.90,ENE,57,7.0,13.0,85,0.00,,,0.00,0.0,meteohub,2013-05-03 08:17:00,
2013-05-03 04:22:00,68.7,64.0,29.90,ENE,65,7.0,14.0,85,0.00,,,0.00,0.0,meteohub,2013-05-03 08:22:00,
2013-05-03 04:27:00,68.7,64.4,29.90,NE,36,11.0,14.0,86,0.00,,,0.00,0.0,meteohub,2013-05-03 08:27:00,
2013-05-03 04:32:00,68.7,64.4,29.90,NNE,26,3.0,17.0,86,0.00,,,0.00,0.0,meteohub,2013-05-03 08:32:00,
2013-05-03 04:37:00,68.7,64.4,29.90,NE,48,7.0,17.0,86,0.00,,,0.00,0.0,meteohub,2013-05-03 08:37:00,
2013-05-03 04:42:00,68.5,64.2,29.90,NE,44,12.0,17.0,86,0.00,,,0.00,0.0,meteohub,2013-05-03 08:42:00,
2013-05-03 04:47:00,68.5,64.6,29.90,NE,42,0.0,12.0,87,0.00,,,0.00,0.0,meteohub,2013-05-03 08:47:00,
2013-05-03 04:52:00,68.5,64.6,29.90,NE,44,3.0,12.0,87,0.00,,,0.00,0.0,meteohub,2013-05-03 08:52:00,
2013-05-03 04:57:00,68.5,64.6,29.90,NE,46,3.0,12.0,87,0.00,,,0.00,0.0,meteohub,2013-05-03 08:57:00,
2013-05-03 05:02:00,68.7,64.8,29.90,NNE,17,0.0,16.0,87,0.00,,,0.00,0.0,meteohub,2013-05-03 09:02:00,
2013-05-03 05:07:00,68.5,64.8,29.90,ENE,58,3.0,16.0,88,0.00,,,0.00,0.0,meteohub,2013-05-03 09:07:00,
2013-05-03 05:12:00,68.4,64.6,29.91,ENE,59,4.0,12.0,88,0.00,,,0.00,0.0,meteohub,2013-05-03 09:12:00,
2013-05-03 05:17:00,68.4,64.4,29.91,North,0,9.0,12.0,87,0.00,,,0.00,0.0,meteohub,2013-05-03 09:17:00,
2013-05-03 05:22:00,68.2,64.4,29.91,NNE,30,3.0,12.0,88,0.00,,,0.00,0.0,meteohub,2013-05-03 09:22:00,
2013-05-03 05:27:00,67.8,64.4,29.91,NE,42,3.0,13.0,89,0.00,,,0.00,0.0,meteohub,2013-05-03 09:27:00,
2013-05-03 05:32:00,67.6,64.2,29.91,East,84,9.0,13.0,89,0.00,,,0.00,0.0,meteohub,2013-05-03 09:32:00,
2013-05-03 05:37:00,67.6,64.2,29.91,NNE,25,4.0,13.0,89,0.00,,,0.00,0.0,meteohub,2013-05-03 09:37:00,
2013-05-03 05:42:00,67.5,64.4,29.91,NE,41,3.0,13.0,90,0.00,,,0.00,0.0,meteohub,2013-05-03 09:42:00,
2013-05-03 05:47:00,67.3,64.2,29.91,NNE,22,1.0,12.0,90,0.00,,,0.00,0.0,meteohub,2013-05-03 09:47:00,
2013-05-03 05:52:00,67.3,64.6,29.91,North,0,1.0,13.0,91,0.00,,,0.00,0.0,meteohub,2013-05-03 09:52:00,
2013-05-03 05:57:00,67.1,64.4,29.90,NE,44,5.0,13.0,91,0.00,,,0.00,0.0,meteohub,2013-05-03 09:57:00,
2013-05-03 06:02:00,66.9,64.2,29.91,NE,39,3.0,13.0,91,0.00,,,0.00,0.0,meteohub,2013-05-03 10:02:00,
2013-05-03 06:07:00,66.7,64.4,29.91,NNE,20,3.0,11.0,92,0.00,,,0.00,0.0,meteohub,2013-05-03 10:07:00,
2013-05-03 06:12:00,66.7,64.4,29.91,NNE,24,8.0,11.0,92,0.00,,,0.00,0.0,meteohub,2013-05-03 10:12:00,
2013-05-03 06:17:00,66.6,64.4,29.91,NE,51,2.0,13.0,93,0.00,,,0.00,0.0,meteohub,2013-05-03 10:17:00,
2013-05-03 06:22:00,66.4,64.2,29.90,NNE,21,2.0,13.0,93,0.00,,,0.00,0.0,meteohub,2013-05-03 10:22:00,
2013-05-03 06:27:00,66.4,64.2,29.90,NE,55,5.0,13.0,93,0.01,,,0.01,0.0,meteohub,2013-05-03 10:27:00,
2013-05-03 06:32:00,66.2,64.4,29.91,NNE,33,3.0,12.0,94,0.01,,,0.01,0.0,meteohub,2013-05-03 10:32:00,
2013-05-03 06:37:00,66.2,64.4,29.91,NE,55,9.0,11.0,94,0.01,,,0.01,0.0,meteohub,2013-05-03 10:37:00,
2013-05-03 06:42:00,66.0,64.2,29.91,NE,48,6.0,11.0,94,0.01,,,0.01,0.0,meteohub,2013-05-03 10:42:00,
2013-05-03 06:47:00,66.2,64.4,29.91,NNE,21,7.0,11.0,94,0.01,,,0.01,0.0,meteohub,2013-05-03 10:47:00,
2013-05-03 06:52:00,66.2,64.4,29.91,NE,48,4.0,11.0,94,0.01,,,0.01,0.0,meteohub,2013-05-03 10:52:00,
2013-05-03 06:57:00,66.0,64.2,29.91,NE,36,5.0,11.0,94,0.01,,,0.01,0.0,meteohub,2013-05-03 10:57:00,
2013-05-03 07:02:00,66.0,64.2,29.91,NNE,24,5.0,11.0,94,0.01,,,0.01,0.0,meteohub,2013-05-03 11:02:00,
2013-05-03 07:07:00,66.0,63.9,29.91,NE,38,6.0,11.0,93,0.01,,,0.01,0.0,meteohub,2013-05-03 11:07:00,
2013-05-03 07:12:00,66.2,64.0,29.91,NNE,30,3.0,11.0,93,0.01,,,0.01,5.0,meteohub,2013-05-03 11:12:00,
2013-05-03 07:17:00,66.4,64.2,29.91,NE,34,2.0,11.0,93,0.01,,,0.01,7.0,meteohub,2013-05-03 11:17:00,
2013-05-03 07:22:00,66.4,64.2,29.91,NE,35,6.0,11.0,93,0.00,,,0.01,7.0,meteohub,2013-05-03 11:22:00,
2013-05-03 07:27:00,66.4,64.2,29.91,NE,56,3.0,10.0,93,0.00,,,0.01,9.0,meteohub,2013-05-03 11:27:00,
2013-05-03 07:32:00,66.6,64.4,29.91,NE,49,0.0,11.0,93,0.00,,,0.01,11.0,meteohub,2013-05-03 11:32:00,
2013-05-03 07:37:00,66.6,64.4,29.91,NNE,27,4.0,11.0,93,0.00,,,0.01,14.0,meteohub,2013-05-03 11:37:00,
2013-05-03 07:42:00,66.4,64.2,29.92,NE,52,1.0,11.0,93,0.00,,,0.01,18.0,meteohub,2013-05-03 11:42:00,
2013-05-03 07:47:00,66.4,64.2,29.92,NE,52,6.0,10.0,93,0.00,,,0.01,21.0,meteohub,2013-05-03 11:47:00,
2013-05-03 07:52:00,66.4,64.2,29.91,NW,317,4.0,10.0,93,0.00,,,0.01,21.0,meteohub,2013-05-03 11:52:00,
2013-05-03 07:57:00,66.4,64.2,29.92,NNW,347,7.0,10.0,93,0.00,,,0.01,23.0,meteohub,2013-05-03 11:57:00,
2013-05-03 08:02:00,66.6,64.4,29.92,NNE,19,6.0,13.0,93,0.00,,,0.01,26.0,meteohub,2013-05-03 12:02:00,
2013-05-03 08:07:00,66.6,64.4,29.92,NE,37,5.0,13.0,93,0.00,,,0.01,28.0,meteohub,2013-05-03 12:07:00,
2013-05-03 08:12:00,66.6,64.4,29.92,NNE,31,7.0,13.0,93,0.00,,,0.01,32.0,meteohub,2013-05-03 12:12:00,
2013-05-03 08:17:00,66.6,64.4,29.92,NE,34,1.0,11.0,93,0.00,,,0.01,35.0,meteohub,2013-05-03 12:17:00,
2013-05-03 08:22:00,66.7,64.6,29.92,NNE,28,7.0,10.0,93,0.00,,,0.01,39.0,meteohub,2013-05-03 12:22:00,
2013-05-03 08:27:00,66.7,64.6,29.92,NE,41,6.0,10.0,93,0.00,,,0.01,42.0,meteohub,2013-05-03 12:27:00,
2013-05-03 08:32:00,66.9,64.8,29.92,NE,41,4.0,13.0,93,0.00,,,0.01,49.0,meteohub,2013-05-03 12:32:00,
2013-05-03 08:37:00,66.9,64.8,29.92,ENE,69,4.0,13.0,93,0.00,,,0.01,63.0,meteohub,2013-05-03 12:37:00,
2013-05-03 08:42:00,67.1,64.9,29.92,NE,49,6.0,13.0,93,0.00,,,0.01,76.0,meteohub,2013-05-03 12:42:00,
2013-05-03 08:47:00,67.3,65.1,29.92,North,0,3.0,12.0,93,0.00,,,0.01,84.0,meteohub,2013-05-03 12:47:00,
2013-05-03 08:52:00,67.3,64.9,29.92,NE,43,4.0,12.0,92,0.00,,,0.01,93.0,meteohub,2013-05-03 12:52:00,
2013-05-03 08:57:00,67.5,65.1,29.92,ENE,57,2.0,10.0,92,0.00,,,0.01,90.0,meteohub,2013-05-03 12:57:00,
2013-05-03 09:02:00,67.6,65.3,29.92,ENE,63,7.0,11.0,92,0.00,,,0.01,90.0,meteohub,2013-05-03 13:02:00,
2013-05-03 09:07:00,68.0,65.3,29.92,North,355,4.0,12.0,91,0.00,,,0.01,102.0,meteohub,2013-05-03 13:07:00,
2013-05-03 09:12:00,68.4,65.3,29.92,NNE,24,6.0,12.0,90,0.00,,,0.01,118.0,meteohub,2013-05-03 13:12:00,
2013-05-03 09:17:00,68.7,65.3,29.92,NE,38,5.0,12.0,89,0.00,,,0.01,120.0,meteohub,2013-05-03 13:17:00,
2013-05-03 09:22:00,68.9,65.1,29.92,NE,42,3.0,11.0,88,0.00,,,0.01,100.0,meteohub,2013-05-03 13:22:00,
2013-05-03 09:27:00,69.0,65.0,29.92,NNE,33,7.0,-999.0,88,-99.99,,,0.01,86,weatherlink.com 1.10,2013-05-03 13:27:00,
2013-05-03 09:32:00,69.1,65.3,29.93,NE,51,3.0,11.0,88,0.00,,,0.01,100.0,meteohub,2013-05-03 13:32:00,
2013-05-03 09:36:00,69.3,65.3,29.93,NE,47,6.0,13.0,87,0.00,,,0.01,95.0,meteohub,2013-05-03 13:36:00,
2013-05-03 09:42:00,69.2,65.0,29.92,NNE,30,1.0,-999.0,86,-99.99,,,0.01,91,weatherlink.com 1.10,2013-05-03 13:42:00,
2013-05-03 09:47:00,69.3,64.9,29.93,ENE,74,1.0,13.0,86,0.00,,,0.01,72.0,meteohub,2013-05-03 13:47:00,
2013-05-03 09:52:00,69.1,64.8,29.93,ESE,110,4.0,12.0,86,0.00,,,0.01,97.0,meteohub,2013-05-03 13:52:00,
2013-05-03 09:57:00,68.9,65.0,29.92,NE,42,4.0,-999.0,86,-99.99,,,0.01,90,weatherlink.com 1.10,2013-05-03 13:57:00,
2013-05-03 10:02:00,68.7,64.8,29.93,NE,51,9.0,13.0,87,0.00,,,0.01,100.0,meteohub,2013-05-03 14:02:00,
2013-05-03 10:07:00,68.5,64.6,29.93,NE,40,2.0,13.0,87,0.00,,,0.01,100.0,meteohub,2013-05-03 14:07:00,
2013-05-03 10:12:00,68.2,64.4,29.92,NE,44,8.0,13.0,88,0.00,,,0.01,104.0,meteohub,2013-05-03 14:12:00,
2013-05-03 10:17:00,67.8,64.4,29.92,NNE,28,6.0,13.0,89,0.00,,,0.01,93.0,meteohub,2013-05-03 14:17:00,
2013-05-03 10:22:00,67.6,64.6,29.92,NE,54,3.0,13.0,90,0.01,,,0.02,135.0,meteohub,2013-05-03 14:22:00,
2013-05-03 10:27:00,67.5,65.0,29.92,East,79,6.0,-999.0,90,-99.99,,,0.02,153,weatherlink.com 1.10,2013-05-03 14:27:00,
2013-05-03 10:32:00,67.6,64.6,29.92,ENE,57,7.0,12.0,90,0.01,,,0.02,70.0,meteohub,2013-05-03 14:32:00,
2013-05-03 10:37:00,67.8,65.1,29.92,NE,36,3.0,15.0,91,0.01,,,0.02,127.0,meteohub,2013-05-03 14:37:00,
2013-05-03 10:42:00,67.8,65.0,29.92,NE,38,7.0,-999.0,91,-99.99,,,0.02,132,weatherlink.com 1.10,2013-05-03 14:42:00,
2013-05-03 10:47:00,67.6,64.9,29.92,NE,53,10.0,18.0,91,0.01,,,0.02,125.0,meteohub,2013-05-03 14:47:00,
2013-05-03 10:52:00,67.5,64.4,29.93,NNE,30,13.0,18.0,90,0.01,,,0.02,107.0,meteohub,2013-05-03 14:52:00,
2013-05-03 10:57:00,67.5,64.4,29.93,East,82,11.0,16.0,90,0.01,,,0.02,158.0,meteohub,2013-05-03 14:57:00,
2013-05-03 11:02:00,67.5,64.8,29.93,NNE,22,12.0,16.0,91,0.01,,,0.02,142.0,meteohub,2013-05-03 15:02:00,
2013-05-03 11:07:00,66.9,64.6,29.93,NNE,25,8.0,16.0,92,0.01,,,0.02,98.0,meteohub,2013-05-03 15:07:00,
2013-05-03 11:12:00,66.6,64.0,29.92,NE,49,7.0,-999.0,92,-99.99,,,0.03,105,weatherlink.com 1.10,2013-05-03 15:12:00,
2013-05-03 11:17:00,66.6,64.4,29.93,NNE,30,10.0,19.0,93,0.02,,,0.03,135.0,meteohub,2013-05-03 15:17:00,
2013-05-03 11:22:00,66.6,64.4,29.93,ENE,59,9.0,19.0,93,0.02,,,0.04,98.0,meteohub,2013-05-03 15:22:00,
2013-05-03 11:27:00,66.6,64.4,29.93,NNE,14,4.0,18.0,93,0.02,,,0.04,102.0,meteohub,2013-05-03 15:27:00,
2013-05-03 11:31:00,66.6,64.4,29.93,NNE,24,5.0,18.0,93,0.02,,,0.04,113.0,meteohub,2013-05-03 15:31:00,
2013-05-03 11:36:00,66.6,64.4,29.93,NNE,13,9.0,17.0,93,0.03,,,0.05,128.0,meteohub,2013-05-03 15:36:00,
2013-05-03 11:41:00,66.6,64.8,29.93,NE,43,7.0,17.0,94,0.03,,,0.05,137.0,meteohub,2013-05-03 15:41:00,
2013-05-03 11:46:00,66.7,64.9,29.93,NE,44,3.0,15.0,94,0.03,,,0.05,139.0,meteohub,2013-05-03 15:46:00,
2013-05-03 11:52:00,66.7,64.9,29.93,NNE,26,4.0,15.0,94,0.04,,,0.06,125.0,meteohub,2013-05-03 15:52:00,
2013-05-03 11:57:00,66.9,65.1,29.93,NE,52,6.0,17.0,94,0.04,,,0.06,128.0,meteohub,2013-05-03 15:57:00,
2013-05-03 12:02:00,66.7,64.9,29.93,NNE,26,8.0,17.0,94,0.04,,,0.06,132.0,meteohub,2013-05-03 16:02:00,
2013-05-03 12:07:00,66.9,65.1,29.93,ENE,61,5.0,18.0,94,0.04,,,0.07,90.0,meteohub,2013-05-03 16:07:00,
2013-05-03 12:12:00,66.7,64.9,29.93,NE,37,6.0,18.0,94,0.05,,,0.08,120.0,meteohub,2013-05-03 16:12:00,
2013-05-03 12:17:00,66.7,64.9,29.93,North,0,10.0,18.0,94,0.05,,,0.09,128.0,meteohub,2013-05-03 16:17:00,
2013-05-03 12:21:00,66.6,64.8,29.93,ENE,65,4.0,15.0,94,0.05,,,0.09,151.0,meteohub,2013-05-03 16:21:00,
2013-05-03 12:26:00,66.4,64.0,29.93,NNE,28,5.0,20.0,92,0.06,,,0.10,121.0,meteohub,2013-05-03 16:26:00,
2013-05-03 12:31:00,65.8,63.7,29.93,NE,40,5.0,20.0,93,0.06,,,0.10,118.0,meteohub,2013-05-03 16:31:00,
2013-05-03 12:36:00,65.8,63.7,29.92,NE,48,2.0,20.0,93,0.05,,,0.10,188.0,meteohub,2013-05-03 16:36:00,
2013-05-03 12:41:00,65.8,63.7,29.92,NNE,30,10.0,15.0,93,0.05,,,0.10,183.0,meteohub,2013-05-03 16:41:00,
2013-05-03 12:46:00,66.0,63.7,29.92,NE,55,9.0,15.0,92,0.05,,,0.10,144.0,meteohub,2013-05-03 16:46:00,
2013-05-03 12:51:00,66.0,63.7,29.92,NNE,20,4.0,15.0,92,0.05,,,0.11,171.0,meteohub,2013-05-03 16:51:00,
2013-05-03 12:56:00,66.6,64.2,29.92,NE,51,4.0,14.0,92,0.05,,,0.11,171.0,meteohub,2013-05-03 16:56:00,
2013-05-03 13:01:00,66.7,64.4,29.92,NE,52,1.0,13.0,92,0.05,,,0.11,204.0,meteohub,2013-05-03 17:01:00,
2013-05-03 13:06:00,67.3,64.9,29.91,ENE,61,9.0,11.0,92,0.04,,,0.11,202.0,meteohub,2013-05-03 17:06:00,
2013-05-03 13:12:00,67.6,65.3,29.91,NE,49,2.0,12.0,92,0.04,,,0.12,195.0,meteohub,2013-05-03 17:12:00,
2013-05-03 13:17:00,67.8,65.1,29.91,NE,44,4.0,12.0,91,0.03,,,0.12,176.0,meteohub,2013-05-03 17:17:00,
2013-05-03 13:22:00,68.0,64.9,29.91,NNE,28,8.0,13.0,90,0.03,,,0.12,199.0,meteohub,2013-05-03 17:22:00,
2013-05-03 13:27:00,68.2,65.1,29.91,NE,38,1.0,13.0,90,0.02,,,0.12,169.0,meteohub,2013-05-03 17:27:00,
2013-05-03 13:32:00,68.4,65.3,29.91,East,94,5.0,11.0,90,0.02,,,0.12,186.0,meteohub,2013-05-03 17:32:00,
2013-05-03 13:37:00,68.2,65.1,29.91,NNE,27,1.0,11.0,90,0.02,,,0.12,169.0,meteohub,2013-05-03 17:37:00,
2013-05-03 13:42:00,68.4,65.3,29.91,East,92,3.0,13.0,90,0.02,,,0.12,213.0,meteohub,2013-05-03 17:42:00,
2013-05-03 13:47:00,68.5,65.5,29.91,ENE,57,1.0,13.0,90,0.01,,,0.12,248.0,meteohub,2013-05-03 17:47:00,
2013-05-03 13:52:00,68.5,65.5,29.91,NE,56,0.0,13.0,90,0.01,,,0.12,181.0,meteohub,2013-05-03 17:52:00,
2013-05-03 13:57:00,68.5,65.1,29.91,East,94,6.0,12.0,89,0.01,,,0.12,155.0,meteohub,2013-05-03 17:57:00,
2013-05-03 14:02:00,68.5,65.1,29.91,ENE,59,1.0,11.0,89,0.01,,,0.12,179.0,meteohub,2013-05-03 18:02:00,
2013-05-03 14:07:00,68.5,65.1,29.92,East,82,1.0,11.0,89,0.01,,,0.12,162.0,meteohub,2013-05-03 18:07:00,
2013-05-03 14:12:00,68.5,65.1,29.92,ENE,62,4.0,11.0,89,0.00,,,0.12,142.0,meteohub,2013-05-03 18:12:00,
2013-05-03 14:17:00,68.5,64.8,29.91,East,88,0.0,13.0,88,0.00,,,0.12,162.0,meteohub,2013-05-03 18:17:00,
2013-05-03 14:22:00,68.4,64.6,29.91,NE,43,6.0,13.0,88,0.00,,,0.12,163.0,meteohub,2013-05-03 18:22:00,
2013-05-03 14:27:00,68.4,64.4,29.91,SSE,157,5.0,13.0,87,0.00,,,0.12,137.0,meteohub,2013-05-03 18:27:00,
2013-05-03 14:32:00,68.4,64.0,29.91,North,355,4.0,13.0,86,0.00,,,0.12,155.0,meteohub,2013-05-03 18:32:00,
2013-05-03 14:37:00,68.4,64.0,29.91,East,83,3.0,13.0,86,0.00,,,0.12,123.0,meteohub,2013-05-03 18:37:00,
2013-05-03 14:42:00,68.4,64.0,29.91,ENE,73,1.0,13.0,86,0.00,,,0.12,139.0,meteohub,2013-05-03 18:42:00,
2013-05-03 14:47:00,68.4,64.4,29.91,ENE,65,8.0,13.0,87,0.00,,,0.12,167.0,meteohub,2013-05-03 18:47:00,
2013-05-03 14:51:00,68.5,63.9,29.91,ENE,74,9.0,13.0,85,0.00,,,0.12,160.0,meteohub,2013-05-03 18:51:00,
2013-05-03 14:56:00,68.7,64.0,29.90,NNE,30,8.0,12.0,85,0.00,,,0.12,160.0,meteohub,2013-05-03 18:56:00,
2013-05-03 15:01:00,68.9,64.2,29.90,ENE,71,9.0,12.0,85,0.00,,,0.12,167.0,meteohub,2013-05-03 19:01:00,
2013-05-03 15:07:00,68.9,64.2,29.90,NE,49,6.0,14.0,85,0.00,,,0.12,167.0,meteohub,2013-05-03 19:07:00,
2013-05-03 15:12:00,68.9,64.2,29.90,ENE,63,4.0,15.0,85,0.00,,,0.12,160.0,meteohub,2013-05-03 19:12:00,
2013-05-03 15:17:00,68.9,63.9,29.90,ENE,64,7.0,15.0,84,0.00,,,0.12,144.0,meteohub,2013-05-03 19:17:00,
2013-05-03 15:22:00,68.9,63.9,29.89,ENE,60,1.0,15.0,84,0.00,,,0.12,130.0,meteohub,2013-05-03 19:22:00,
2013-05-03 15:27:00,68.7,63.7,29.89,ENE,65,8.0,12.0,84,0.00,,,0.12,125.0,meteohub,2013-05-03 19:27:00,
2013-05-03 15:32:00,68.7,64.0,29.89,NE,52,0.0,12.0,85,0.00,,,0.12,91.0,meteohub,2013-05-03 19:32:00,
2013-05-03 15:37:00,68.4,64.0,29.89,East,86,0.0,14.0,86,0.00,,,0.12,60.0,meteohub,2013-05-03 19:37:00,
2013-05-03 15:42:00,68.2,64.4,29.89,ESE,117,7.0,14.0,88,0.00,,,0.12,97.0,meteohub,2013-05-03 19:42:00,
2013-05-03 15:47:00,67.6,64.2,29.89,East,83,5.0,9.0,89,0.01,,,0.13,88.0,meteohub,2013-05-03 19:47:00,
2013-05-03 15:52:00,67.5,64.4,29.89,NNE,24,8.0,10.0,90,0.01,,,0.13,100.0,meteohub,2013-05-03 19:52:00,
2013-05-03 15:57:00,67.3,64.6,29.89,NNW,338,4.0,10.0,91,0.02,,,0.14,107.0,meteohub,2013-05-03 19:57:00,
2013-05-03 16:02:00,67.3,64.6,29.88,NNE,18,7.0,14.0,91,0.02,,,0.14,104.0,meteohub,2013-05-03 20:02:00,
2013-05-03 16:07:00,67.3,64.6,29.88,NE,40,12.0,14.0,91,0.02,,,0.14,91.0,meteohub,2013-05-03 20:07:00,
2013-05-03 16:12:00,67.1,64.4,29.88,NNE,32,7.0,14.0,91,0.02,,,0.14,95.0,meteohub,2013-05-03 20:12:00,
2013-05-03 16:17:00,66.9,64.2,29.88,NE,49,4.0,14.0,91,0.03,,,0.15,93.0,meteohub,2013-05-03 20:17:00,
2013-05-03 16:22:00,66.9,64.2,29.88,ESE,105,3.0,14.0,91,0.03,,,0.15,98.0,meteohub,2013-05-03 20:22:00,
2013-05-03 16:27:00,66.9,64.6,29.88,NE,56,0.0,14.0,92,0.03,,,0.15,104.0,meteohub,2013-05-03 20:27:00,
2013-05-03 16:32:00,66.9,64.2,29.88,NE,46,2.0,14.0,91,0.03,,,0.15,88.0,meteohub,2013-05-03 20:32:00,
2013-05-03 16:37:00,66.9,64.2,29.88,NE,56,3.0,11.0,91,0.04,,,0.16,97.0,meteohub,2013-05-03 20:37:00,
2013-05-03 16:42:00,66.9,64.2,29.88,NE,34,4.0,11.0,91,0.04,,,0.16,90.0,meteohub,2013-05-03 20:42:00,
2013-05-03 16:47:00,66.7,64.0,29.88,NNE,30,0.0,13.0,91,0.03,,,0.16,81.0,meteohub,2013-05-03 20:47:00,
2013-05-03 16:52:00,66.7,64.0,29.88,East,95,1.0,13.0,91,0.04,,,0.17,77.0,meteohub,2013-05-03 20:52:00,
2013-05-03 16:57:00,66.6,64.2,29.88,NE,56,2.0,13.0,92,0.03,,,0.17,63.0,meteohub,2013-05-03 20:57:00,
2013-05-03 17:02:00,66.4,64.0,29.88,East,95,3.0,12.0,92,0.03,,,0.17,102.0,meteohub,2013-05-03 21:02:00,
2013-05-03 17:07:00,66.4,64.0,29.88,ENE,57,3.0,10.0,92,0.03,,,0.17,81.0,meteohub,2013-05-03 21:07:00,
2013-05-03 17:12:00,66.4,64.2,29.88,North,0,4.0,10.0,93,0.04,,,0.18,109.0,meteohub,2013-05-03 21:12:00,
2013-05-03 17:17:00,66.6,64.4,29.88,NE,44,4.0,7.0,93,0.03,,,0.18,107.0,meteohub,2013-05-03 21:17:00,
2013-05-03 17:22:00,66.7,64.4,29.88,East,101,1.0,11.0,92,0.03,,,0.18,104.0,meteohub,2013-05-03 21:22:00,
2013-05-03 17:27:00,66.7,64.0,29.88,NE,45,5.0,11.0,91,0.03,,,0.18,98.0,meteohub,2013-05-03 21:27:00,
2013-05-03 17:32:00,66.7,63.7,29.88,ENE,61,2.0,11.0,90,0.02,,,0.18,95.0,meteohub,2013-05-03 21:32:00,
2013-05-03 17:37:00,66.7,63.7,29.88,NNE,21,2.0,14.0,90,0.02,,,0.18,93.0,meteohub,2013-05-03 21:37:00,
2013-05-03 17:42:00,66.9,63.5,29.88,NE,42,2.0,14.0,89,0.02,,,0.18,90.0,meteohub,2013-05-03 21:42:00,
2013-05-03 17:47:00,66.9,63.0,29.88,ENE,61,3.0,14.0,87,0.02,,,0.18,84.0,meteohub,2013-05-03 21:47:00,
2013-05-03 17:52:00,67.1,62.4,29.88,ENE,59,13.0,13.0,85,0.01,,,0.18,79.0,meteohub,2013-05-03 21:52:00,
2013-05-03 17:57:00,67.1,62.4,29.87,NE,38,2.0,13.0,85,0.01,,,0.18,77.0,meteohub,2013-05-03 21:57:00,
2013-05-03 18:02:00,67.3,62.2,29.88,NNE,21,3.0,13.0,84,0.01,,,0.18,81.0,meteohub,2013-05-03 22:02:00,
2013-05-03 18:07:00,67.1,62.4,29.88,NNE,30,4.0,13.0,85,0.01,,,0.18,86.0,meteohub,2013-05-03 22:07:00,
2013-05-03 18:12:00,67.1,62.4,29.88,NNE,22,1.0,12.0,85,0.00,,,0.18,90.0,meteohub,2013-05-03 22:12:00,
2013-05-03 18:17:00,67.3,62.6,29.88,NE,42,2.0,11.0,85,0.00,,,0.18,88.0,meteohub,2013-05-03 22:17:00,
2013-05-03 18:22:00,67.5,63.1,29.87,ENE,57,2.0,11.0,86,0.00,,,0.18,83.0,meteohub,2013-05-03 22:22:00,
2013-05-03 18:27:00,67.5,62.8,29.87,NNE,22,2.0,18.0,85,0.00,,,0.18,76.0,meteohub,2013-05-03 22:27:00,
2013-05-03 18:32:00,67.5,63.1,29.87,ENE,64,4.0,18.0,86,0.00,,,0.18,67.0,meteohub,2013-05-03 22:32:00,
2013-05-03 18:37:00,67.5,63.5,29.88,NE,42,3.0,10.0,87,0.00,,,0.18,65.0,meteohub,2013-05-03 22:37:00,
2013-05-03 18:42:00,67.5,63.5,29.88,North,355,3.0,7.0,87,0.00,,,0.18,63.0,meteohub,2013-05-03 22:42:00,
2013-05-03 18:47:00,67.3,63.7,29.88,East,96,5.0,8.0,88,0.00,,,0.18,62.0,meteohub,2013-05-03 22:47:00,
2013-05-03 18:52:00,67.5,63.9,29.88,East,80,7.0,11.0,88,0.00,,,0.18,58.0,meteohub,2013-05-03 22:52:00,
2013-05-03 18:57:00,67.5,63.1,29.88,NE,40,10.0,11.0,86,0.00,,,0.18,53.0,meteohub,2013-05-03 22:57:00,
2013-05-03 19:02:00,67.5,62.8,29.88,ENE,76,11.0,13.0,85,0.00,,,0.18,46.0,meteohub,2013-05-03 23:02:00,
2013-05-03 19:07:00,67.5,62.1,29.88,East,84,7.0,13.0,83,0.00,,,0.18,39.0,meteohub,2013-05-03 23:07:00,
2013-05-03 19:12:00,67.5,62.4,29.88,ENE,61,2.0,16.0,84,0.00,,,0.18,33.0,meteohub,2013-05-03 23:12:00,
2013-05-03 19:17:00,67.3,62.2,29.88,NE,51,4.0,16.0,84,0.00,,,0.18,28.0,meteohub,2013-05-03 23:17:00,
2013-05-03 19:22:00,67.3,62.6,29.88,ENE,64,4.0,15.0,85,0.00,,,0.18,23.0,meteohub,2013-05-03 23:22:00,
2013-05-03 19:27:00,67.1,62.8,29.88,NW,319,5.0,15.0,86,0.00,,,0.18,18.0,meteohub,2013-05-03 23:27:00,
2013-05-03 19:32:00,67.3,62.2,29.88,ENE,65,3.0,17.0,84,0.00,,,0.18,16.0,meteohub,2013-05-03 23:32:00,
2013-05-03 19:37:00,67.3,62.2,29.88,NNE,27,7.0,17.0,84,0.00,,,0.18,11.0,meteohub,2013-05-03 23:37:00,
2013-05-03 19:42:00,67.3,62.2,29.88,NE,55,5.0,17.0,84,0.00,,,0.18,9.0,meteohub,2013-05-03 23:42:00,
2013-05-03 19:47:00,66.9,62.2,29.88,NE,40,9.0,13.0,85,0.00,,,0.18,9.0,meteohub,2013-05-03 23:47:00,
2013-05-03 19:52:00,66.7,62.4,29.88,East,79,9.0,13.0,86,0.00,,,0.18,9.0,meteohub,2013-05-03 23:52:00,
2013-05-03 19:57:00,66.7,62.4,29.88,NE,44,5.0,13.0,86,0.00,,,0.18,9.0,meteohub,2013-05-03 23:57:00,
2013-05-03 20:02:00,66.6,62.6,29.88,NE,34,5.0,13.0,87,0.00,,,0.18,5.0,meteohub,2013-05-04 00:02:00,
2013-05-03 20:07:00,66.6,62.6,29.89,NNE,26,5.0,13.0,87,0.00,,,0.18,0.0,meteohub,2013-05-04 00:07:00,
2013-05-03 20:12:00,66.6,63.0,29.89,NE,42,3.0,13.0,88,0.00,,,0.18,0.0,meteohub,2013-05-04 00:12:00,
2013-05-03 20:17:00,66.6,63.0,29.89,ENE,61,7.0,11.0,88,0.00,,,0.18,0.0,meteohub,2013-05-04 00:17:00,
2013-05-03 20:22:00,66.7,62.8,29.89,East,83,1.0,13.0,87,0.01,,,0.19,0.0,meteohub,2013-05-04 00:22:00,
2013-05-03 20:27:00,66.9,62.6,29.89,ENE,59,1.0,13.0,86,0.01,,,0.19,0.0,meteohub,2013-05-04 00:27:00,
2013-05-03 20:32:00,66.9,62.6,29.89,NE,56,0.0,13.0,86,0.01,,,0.19,0.0,meteohub,2013-05-04 00:32:00,
2013-05-03 20:37:00,66.9,62.6,29.88,ESE,115,0.0,11.0,86,0.01,,,0.19,0.0,meteohub,2013-05-04 00:37:00,
2013-05-03 20:42:00,66.9,62.2,29.89,NE,45,8.0,13.0,85,0.01,,,0.19,0.0,meteohub,2013-05-04 00:42:00,
2013-05-03 20:47:00,67.3,61.2,29.89,ENE,60,4.0,13.0,81,0.01,,,0.19,0.0,meteohub,2013-05-04 00:47:00,
2013-05-03 20:52:00,67.5,60.8,29.89,North,5,6.0,14.0,79,0.01,,,0.19,0.0,meteohub,2013-05-04 00:52:00,
2013-05-03 20:57:00,67.6,59.7,29.89,East,84,5.0,14.0,76,0.01,,,0.19,0.0,meteohub,2013-05-04 00:57:00,
2013-05-03 21:02:00,67.5,58.5,29.89,NE,36,3.0,17.0,73,0.01,,,0.19,0.0,meteohub,2013-05-04 01:02:00,
2013-05-03 21:07:00,67.5,58.1,29.89,ENE,76,10.0,17.0,72,0.01,,,0.19,0.0,meteohub,2013-05-04 01:07:00,
2013-05-03 21:12:00,67.6,58.6,29.89,ENE,74,1.0,17.0,73,0.01,,,0.19,0.0,meteohub,2013-05-04 01:12:00,
2013-05-03 21:17:00,67.6,59.7,29.88,NE,41,7.0,17.0,76,0.01,,,0.19,0.0,meteohub,2013-05-04 01:17:00,
2013-05-03 21:22:00,67.8,59.5,29.89,East,98,7.0,16.0,75,0.00,,,0.19,0.0,meteohub,2013-05-04 01:22:00,
2013-05-03 21:27:00,67.8,59.5,29.89,NE,38,4.0,16.0,75,0.00,,,0.19,0.0,meteohub,2013-05-04 01:27:00,
2013-05-03 21:32:00,68.0,59.7,29.89,NNE,24,4.0,15.0,75,0.00,,,0.19,0.0,meteohub,2013-05-04 01:32:00,
2013-05-03 21:37:00,68.2,59.9,29.89,East,82,6.0,15.0,75,0.00,,,0.19,0.0,meteohub,2013-05-04 01:37:00,
2013-05-03 21:42:00,68.2,60.3,29.89,East,81,6.0,15.0,76,0.00,,,0.19,0.0,meteohub,2013-05-04 01:42:00,
2013-05-03 21:47:00,68.2,60.6,29.89,NE,45,11.0,14.0,77,0.00,,,0.19,0.0,meteohub,2013-05-04 01:47:00,
2013-05-03 21:52:00,68.0,60.8,29.88,NE,52,4.0,14.0,78,0.00,,,0.19,0.0,meteohub,2013-05-04 01:52:00,
2013-05-03 21:57:00,68.0,61.2,29.88,NE,45,0.0,13.0,79,0.00,,,0.19,0.0,meteohub,2013-05-04 01:57:00,
2013-05-03 22:02:00,68.0,61.2,29.88,ENE,69,10.0,13.0,79,0.00,,,0.19,0.0,meteohub,2013-05-04 02:02:00,
2013-05-03 22:07:00,68.2,61.7,29.88,East,92,6.0,13.0,80,0.00,,,0.19,0.0,meteohub,2013-05-04 02:07:00,
2013-05-03 22:12:00,68.2,61.3,29.88,ENE,67,7.0,14.0,79,0.00,,,0.19,0.0,meteohub,2013-05-04 02:12:00,
2013-05-03 22:18:00,68.0,61.5,29.88,ENE,70,3.0,14.0,80,0.00,,,0.19,0.0,meteohub,2013-05-04 02:18:00,
2013-05-03 22:23:00,68.0,61.9,29.88,ENE,67,4.0,13.0,81,0.00,,,0.19,0.0,meteohub,2013-05-04 02:23:00,
2013-05-03 22:28:00,68.0,61.5,29.89,NE,51,3.0,12.0,80,0.00,,,0.19,0.0,meteohub,2013-05-04 02:28:00,
2013-05-03 22:32:00,68.2,61.0,29.88,East,86,0.0,13.0,78,0.00,,,0.19,0.0,meteohub,2013-05-04 02:32:00,
2013-05-03 22:37:00,68.4,61.2,29.88,ESE,117,8.0,13.0,78,0.00,,,0.19,0.0,meteohub,2013-05-04 02:37:00,
2013-05-03 22:43:00,68.5,60.6,29.88,NE,51,5.0,13.0,76,0.00,,,0.19,0.0,meteohub,2013-05-04 02:43:00,
2013-05-03 22:48:00,68.5,60.6,29.88,East,82,6.0,20.0,76,0.00,,,0.19,0.0,meteohub,2013-05-04 02:48:00,
2013-05-03 22:53:00,68.5,60.6,29.88,NE,53,8.0,20.0,76,0.00,,,0.19,0.0,meteohub,2013-05-04 02:53:00,
2013-05-03 22:58:00,68.7,60.4,29.88,NE,46,5.0,20.0,75,0.00,,,0.19,0.0,meteohub,2013-05-04 02:58:00,
2013-05-03 23:03:00,68.9,60.6,29.88,East,81,10.0,16.0,75,0.00,,,0.19,0.0,meteohub,2013-05-04 03:03:00,
2013-05-03 23:08:00,68.9,60.6,29.88,NE,47,9.0,16.0,75,0.00,,,0.19,0.0,meteohub,2013-05-04 03:08:00,
2013-05-03 23:13:00,68.9,61.0,29.87,NE,53,7.0,17.0,76,0.00,,,0.19,0.0,meteohub,2013-05-04 03:13:00,
2013-05-03 23:18:00,68.9,61.0,29.87,East,80,3.0,17.0,76,0.00,,,0.19,0.0,meteohub,2013-05-04 03:18:00,
2013-05-03 23:23:00,68.9,61.0,29.87,NNE,30,4.0,17.0,76,0.00,,,0.19,0.0,meteohub,2013-05-04 03:23:00,
2013-05-03 23:28:00,68.7,60.8,29.87,NE,55,10.0,17.0,76,0.00,,,0.19,0.0,meteohub,2013-05-04 03:28:00,
2013-05-03 23:33:00,68.7,60.8,29.87,East,92,10.0,17.0,76,0.00,,,0.19,0.0,meteohub,2013-05-04 03:33:00,
2013-05-03 23:38:00,68.9,61.0,29.87,NE,36,1.0,17.0,76,0.00,,,0.19,0.0,meteohub,2013-05-04 03:38:00,
2013-05-03 23:43:00,68.9,61.3,29.86,ENE,69,9.0,18.0,77,0.00,,,0.19,0.0,meteohub,2013-05-04 03:43:00,
2013-05-03 23:48:00,68.9,61.3,29.86,East,94,6.0,18.0,77,0.00,,,0.19,0.0,meteohub,2013-05-04 03:48:00,
2013-05-03 23:53:00,68.7,61.2,29.87,NE,43,2.0,13.0,77,0.00,,,0.19,0.0,meteohub,2013-05-04 03:53:00,
2013-05-03 23:58:00,68.7,61.2,29.87,NE,35,4.0,13.0,77,0.00,,,0.19,0.0,meteohub,2013-05-04 03:58:00,